QPF
0.00 0.00 0.00 0.00 0.00 0.00 0.00 0.00 0.00 0.00 0.00 0.00 0.00 0.00 0.00 0.00 0.00 0.00 0.00 0.00 0.00 0.00 0.00 0.00 0.00 0.00 0.00 0.00 0.00 0.00 0.00 0.00 0.00 0.00 0.01 0.02 0.03 0.04
0.00 0.00 0.00 0.00 0.00 0.00 0.00 0.00 0.00 0.00 0.00 0.00 0.00 0.00 0.00 0.00 0.00 0.00 0.00 0.00 0.00 0.00 0.00 0.00 0.00 0.00 0.00 0.00 0.00 0.00 0.00 0.00 0.00 0.01 0.01 0.03 0.04 0.04
0.00 0.00 0.00 0.00 0.00 0.00 0.00 0.00 0.00 0.00 0.00 0.00 0.00 0.00 0.00 0.00 0.00 0.00 0.00 0.00 0.00 0.00 0.00 0.00 0.00 0.00 0.00 0.00 0.00 0.00 0.00 0.01 0.01 0.01 0.01 0.02 0.03 0.04
0.00 0.00 0.00 0.00 0.00 0.00 0.00 0.00 0.00 0.00 0.00 0.00 0.00 0.00 0.00 0.00 0.00 0.00 0.00 0.00 0.00 0.00 0.00 0.00 0.00 0.00 0.00 0.00 0.00 0.00 0.01 0.01 0.00 0.00 0.00 0.00 0.00 0.00
0.00 0.00 0.00 0.00 0.00 0.00 0.00 0.00 0.00 0.00 0.00 0.00 0.00 0.00 0.00 0.00 0.00 0.00 0.00 0.00 0.00 0.00 0.00 0.00 0.00 0.00 0.00 0.00 0.00 0.00 0.00 0.00 0.00 0.00 0.00 0.00 0.00 0.00
0.00 0.00 0.00 0.00 0.00 0.00 0.00 0.00 0.00 0.00 0.00 0.00 0.00 0.00 0.00 0.00 0.00 0.00 0.00 0.00 0.00 0.00 0.00 0.00 0.00 0.00 0.00 0.00 0.00 0.00 0.00 0.00 0.00 0.00 0.00 0.00 0.00 0.01
0.00 0.00 0.00 0.00 0.00 0.00 0.00 0.00 0.00 0.00 0.00 0.00 0.00 0.00 0.00 0.00 0.00 0.00 0.00 0.00 0.00 0.00 0.00 0.00 0.00 0.00 0.00 0.00 0.00 0.00 0.00 0.00 0.00 0.00 0.00 0.00 0.01 0.01
0.00 0.00 0.00 0.00 0.00 0.00 0.00 0.00 0.00 0.00 0.00 0.00 0.00 0.00 0.00 0.00 0.00 0.00 0.00 0.00 0.00 0.00 0.00 0.00 0.00 0.00 0.00 0.00 0.00 0.00 0.00 0.00 0.00 0.00 0.00 0.00 0.01 0.01
0.00 0.00 0.00 0.00 0.00 0.00 0.00 0.00 0.00 0.00 0.00 0.00 0.00 0.00 0.00 0.00 0.00 0.00 0.00 0.00 0.00 0.00 0.00 0.00 0.00 0.00 0.00 0.00 0.00 0.00 0.00 0.00 0.00 0.00 0.00 0.00 0.00 0.01
0.00 0.00 0.00 0.00 0.00 0.00 0.00 0.00 0.00 0.00 0.00 0.00 0.00 0.00 0.00 0.00 0.00 0.00 0.00 0.00 0.00 0.00 0.00 0.00 0.00 0.00 0.00 0.00 0.00 0.00 0.00 0.00 0.00 0.00 0.00 0.00 0.00 0.00
0.00 0.00 0.00 0.00 0.00 0.00 0.00 0.00 0.00 0.00 0.00 0.00 0.00 0.00 0.00 0.00 0.00 0.00 0.00 0.00 0.00 0.00 0.00 0.00 0.00 0.00 0.00 0.00 0.00 0.00 0.00 0.00 0.00 0.00 0.00 0.00 0.00 0.00
0.00 0.00 0.00 0.00 0.00 0.00 0.00 0.00 0.00 0.00 0.00 0.00 0.00 0.00 0.00 0.00 0.00 0.00 0.00 0.00 0.00 0.00 0.00 0.00 0.00 0.00 0.00 0.00 0.00 0.00 0.00 0.00 0.00 0.00 0.00 0.00 0.00 0.00
0.00 0.00 0.00 0.00 0.00 0.00 0.00 0.00 0.00 0.00 0.00 0.00 0.00 0.00 0.00 0.00 0.00 0.00 0.00 0.00 0.00 0.00 0.00 0.00 0.00 0.00 0.00 0.00 0.00 0.00 0.00 0.00 0.00 0.00 0.00 0.00 0.00 0.00
0.00 0.00 0.00 0.00 0.00 0.00 0.00 0.00 0.00 0.00 0.00 0.00 0.00 0.00 0.00 0.00 0.00 0.00 0.00 0.00 0.00 0.00 0.00 0.00 0.00 0.00 0.00 0.00 0.00 0.00 0.00 0.00 0.00 0.00 0.00 0.00 0.00 0.00
0.00 0.00 0.00 0.00 0.00 0.00 0.00 0.00 0.00 0.00 0.00 0.00 0.00 0.00 0.00 0.00 0.00 0.00 0.00 0.00 0.00 0.00 0.00 0.00 0.00 0.00 0.00 0.00 0.00 0.00 0.00 0.00 0.00 0.00 0.00 0.00 0.00 0.00
0.00 0.00 0.00 0.00 0.00 0.00 0.00 0.00 0.00 0.00 0.00 0.00 0.00 0.00 0.00 0.00 0.00 0.00 0.00 0.00 0.00 0.00 0.00 0.00 0.00 0.00 0.00 0.00 0.00 0.00 0.00 0.00 0.00 0.00 0.00 0.00 0.00 0.00
0.00 0.00 0.00 0.00 0.00 0.00 0.00 0.00 0.00 0.00 0.00 0.00 0.00 0.00 0.00 0.00 0.00 0.00 0.00 0.00 0.00 0.00 0.00 0.00 0.00 0.00 0.00 0.00 0.00 0.00 0.00 0.00 0.00 0.00 0.00 0.00 0.00 0.00
0.00 0.00 0.00 0.00 0.00 0.00 0.00 0.00 0.00 0.00 0.00 0.00 0.00 0.00 0.00 0.00 0.00 0.00 0.00 0.00 0.00 0.00 0.00 0.00 0.00 0.00 0.00 0.00 0.00 0.00 0.00 0.00 0.00 0.00 0.00 0.00 0.00 0.00
0.00 0.00 0.00 0.00 0.00 0.00 0.00 0.00 0.00 0.00 0.00 0.00 0.00 0.00 0.00 0.00 0.00 0.00 0.00 0.00 0.00 0.00 0.00 0.00 0.00 0.00 0.00 0.00 0.00 0.00 0.00 0.00 0.00 0.00 0.00 0.00 0.00 0.00
0.00 0.00 0.00 0.00 0.00 0.00 0.00 0.00 0.00 0.00 0.00 0.00 0.00 0.00 0.00 0.00 0.00 0.00 0.00 0.00 0.00 0.00 0.00 0.00 0.00 0.00 0.00 0.00 0.00 0.00 0.00 0.00 0.00 0.00 0.00 0.00 0.00 0.00
0.00 0.00 0.00 0.00 0.00 0.00 0.00 0.00 0.00 0.00 0.00 0.00 0.00 0.00 0.00 0.00 0.00 0.00 0.00 0.00 0.00 0.00 0.00 0.00 0.00 0.00 0.00 0.00 0.00 0.00 0.00 0.00 0.00 0.00 0.00 0.00 0.00 0.00
0.00 0.00 0.00 0.00 0.00 0.00 0.00 0.00 0.00 0.00 0.00 0.00 0.00 0.00 0.00 0.00 0.00 0.00 0.00 0.00 0.00 0.00 0.00 0.00 0.00 0.00 0.00 0.00 0.00 0.00 0.00 0.00 0.00 0.00 0.00 0.00 0.00 0.00
0.00 0.00 0.00 0.00 0.00 0.00 0.00 0.00 0.00 0.00 0.00 0.00 0.00 0.00 0.00 0.00 0.00 0.00 0.00 0.00 0.00 0.00 0.00 0.00 0.00 0.00 0.00 0.00 0.00 0.00 0.00 0.00 0.00 0.00 0.00 0.00 0.00 0.00
MSLP
1019.16 1019.45 1020.12 1020.58 1021.48 1021.83 1021.90 1022.00 1022.73 1023.79 1023.75 1022.97 1022.93 1022.48 1022.55 1022.40 1022.23 1021.88 1021.76 1021.50 1020.93 1020.43 1019.93 1019.39 1018.89 1018.38 1017.89 1017.46 1017.00 1016.60 1016.14 1015.87 1015.61 1015.31 1014.94 1014.57 1014.36 1013.99
1019.24 1019.70 1020.30 1020.24 1021.29 1021.96 1021.87 1022.09 1022.50 1023.11 1023.64 1023.00 1022.91 1022.49 1022.33 1022.10 1021.85 1021.44 1021.26 1020.87 1020.57 1020.07 1019.47 1018.90 1018.37 1017.84 1017.33 1016.84 1016.39 1015.94 1015.65 1015.21 1014.85 1014.68 1014.21 1013.78 1013.44 1013.02
1019.77 1020.24 1020.39 1020.41 1021.36 1021.87 1021.81 1022.14 1022.44 1023.03 1023.29 1022.83 1022.68 1022.30 1022.11 1021.89 1021.50 1021.09 1020.79 1020.47 1020.09 1019.53 1018.88 1018.31 1017.79 1017.20 1016.66 1016.22 1015.80 1015.38 1015.08 1014.82 1014.36 1013.90 1013.43 1013.13 1012.57 1012.40
1019.96 1020.52 1020.21 1021.03 1021.39 1021.81 1021.93 1022.11 1022.29 1022.46 1022.92 1022.64 1022.44 1022.19 1021.89 1021.38 1021.10 1020.87 1020.27 1019.82 1019.43 1018.86 1018.25 1017.62 1017.06 1016.59 1016.17 1015.68 1015.20 1014.80 1014.48 1014.08 1013.55 1013.24 1012.80 1012.52 1012.05 1011.78
1020.34 1019.97 1021.28 1021.00 1021.66 1021.63 1021.68 1021.96 1021.97 1022.09 1022.23 1022.29 1022.07 1021.60 1021.35 1020.99 1020.59 1020.36 1019.81 1019.34 1018.92 1018.20 1017.59 1017.14 1016.50 1015.97 1015.56 1015.00 1014.54 1014.08 1013.72 1013.27 1012.92 1012.53 1012.16 1011.74 1011.32 1010.93
1020.73 1020.89 1020.91 1020.99 1021.13 1021.06 1021.18 1021.53 1021.53 1021.73 1021.75 1021.72 1021.52 1021.36 1021.10 1020.50 1020.27 1019.94 1019.25 1018.93 1018.30 1017.61 1017.00 1016.53 1015.92 1015.43 1014.95 1014.49 1014.03 1013.53 1013.13 1012.73 1012.27 1011.76 1011.32 1010.86 1010.41 1010.16
1020.99 1020.91 1020.95 1020.86 1020.65 1020.56 1020.54 1020.95 1021.12 1021.10 1021.22 1021.22 1021.20 1020.95 1020.57 1020.20 1019.95 1019.39 1018.91 1018.25 1017.76 1017.20 1016.32 1016.08 1015.73 1015.22 1014.50 1013.86 1013.28 1012.78 1012.38 1011.82 1011.22 1010.63 1010.14 1009.72 1009.34 1009.06
1021.17 1020.89 1020.68 1020.61 1020.75 1020.75 1020.52 1020.42 1020.51 1020.37 1020.60 1020.73 1020.70 1020.32 1019.92 1019.80 1019.40 1019.04 1018.47 1018.05 1016.96 1016.42 1015.96 1015.18 1014.95 1014.11 1013.51 1013.11 1012.44 1011.70 1011.07 1010.55 1010.09 1009.54 1009.08 1008.69 1008.26 1007.98
1021.18 1021.21 1021.11 1020.66 1020.73 1020.84 1020.53 1020.37 1020.23 1020.09 1019.91 1019.66 1019.66 1019.65 1019.42 1019.18 1018.67 1018.25 1017.92 1017.45 1016.70 1015.92 1015.58 1013.96 1014.19 1013.28 1012.60 1012.10 1011.38 1010.67 1009.98 1009.48 1008.98 1008.48 1007.94 1007.56 1007.15 1006.87
1021.07 1020.96 1021.26 1021.10 1020.74 1020.53 1020.23 1020.09 1019.89 1019.76 1019.57 1019.22 1018.94 1018.78 1018.55 1018.20 1017.97 1017.49 1017.00 1016.56 1015.97 1015.48 1015.48 1013.85 1013.19 1012.54 1011.71 1011.24 1010.42 1009.70 1009.00 1008.44 1007.98 1007.50 1006.97 1006.48 1006.10 1005.82
1021.18 1021.23 1021.16 1020.87 1020.58 1020.05 1019.65 1019.73 1019.60 1019.26 1018.91 1018.47 1018.12 1017.87 1017.68 1017.37 1017.03 1016.79 1016.73 1016.48 1015.38 1014.84 1014.71 1014.06 1012.79 1011.87 1011.02 1010.06 1009.35 1008.66 1008.14 1007.68 1007.12 1006.61 1006.18 1005.72 1005.22 1004.76
1021.15 1021.10 1020.95 1020.57 1020.01 1019.62 1019.40 1019.53 1019.41 1019.15 1018.72 1018.47 1018.34 1018.12 1017.68 1017.43 1016.81 1016.78 1016.55 1016.43 1015.84 1014.35 1013.51 1013.54 1012.55 1012.50 1010.21 1008.98 1008.47 1008.12 1007.69 1007.18 1006.50 1005.82 1005.22 1004.66 1004.25 1003.87
1020.93 1020.76 1020.46 1020.14 1019.70 1019.38 1019.27 1019.32 1019.15 1018.60 1018.50 1018.52 1018.23 1017.79 1017.31 1016.85 1016.52 1016.25 1016.00 1015.94 1015.29 1014.43 1013.02 1013.20 1012.05 1011.87 1011.41 1009.34 1008.12 1007.54 1007.05 1006.15 1005.59 1004.80 1004.31 1003.85 1003.40 1003.06
1020.58 1020.36 1020.13 1019.87 1019.57 1019.42 1019.28 1019.09 1018.60 1018.38 1018.53 1018.35 1018.03 1017.54 1017.17 1016.62 1016.16 1015.79 1015.30 1014.94 1014.48 1013.66 1012.53 1012.77 1011.87 1011.25 1010.39 1009.17 1007.99 1006.46 1005.73 1005.23 1004.61 1003.73 1003.29 1002.78 1002.34 1001.89
1020.28 1020.14 1020.15 1019.97 1019.84 1019.64 1019.35 1018.93 1018.77 1018.75 1018.50 1018.21 1017.84 1017.36 1016.94 1016.47 1015.88 1015.22 1014.53 1013.99 1013.31 1012.44 1011.73 1011.33 1010.99 1010.12 1009.66 1008.55 1007.24 1006.04 1005.00 1003.78 1003.31 1002.73 1002.18 1001.76 1001.32 1000.99
1020.37 1020.50 1020.36 1020.20 1019.97 1019.69 1019.40 1019.13 1018.99 1018.77 1018.39 1018.03 1017.73 1017.20 1016.61 1015.98 1015.34 1014.78 1014.19 1013.40 1012.63 1011.08 1010.27 1009.89 1009.54 1009.17 1008.29 1007.45 1006.62 1005.03 1004.02 1003.50 1002.07 1001.61 1001.07 1000.46 1000.07 999.86
1020.39 1020.48 1020.47 1020.36 1020.19 1019.90 1019.53 1019.21 1018.91 1018.56 1018.25 1017.98 1017.58 1016.92 1016.20 1015.55 1014.83 1014.17 1013.61 1012.78 1012.14 1010.75 1009.37 1008.44 1008.08 1007.64 1006.94 1006.36 1005.25 1003.64 1002.66 1001.88 1000.94 1000.44 1000.17 999.24 998.44 998.14
1020.74 1020.89 1020.83 1020.70 1020.51 1020.18 1019.74 1019.15 1018.72 1018.37 1018.07 1017.69 1017.18 1016.68 1015.97 1015.21 1014.37 1013.39 1012.72 1012.14 1011.18 1010.01 1009.00 1007.79 1007.06 1006.20 1005.04 1003.94 1003.66 1002.55 1001.31 1000.84 999.77 999.20 998.76 997.89 996.48 996.07
1021.22 1021.09 1020.92 1020.70 1020.42 1020.05 1019.65 1019.22 1018.74 1018.20 1017.81 1017.42 1016.94 1016.24 1015.51 1014.66 1013.76 1012.82 1011.89 1011.10 1010.06 1009.13 1008.03 1007.06 1006.23 1005.47 1004.22 1002.64 1001.07 1000.95 1000.37 999.37 998.62 997.92 997.22 996.61 995.66 994.55
1021.40 1021.23 1020.95 1020.54 1020.18 1019.82 1019.41 1018.99 1018.44 1017.91 1017.48 1016.98 1016.39 1015.63 1014.88 1014.11 1013.08 1012.18 1011.25 1010.42 1009.31 1008.07 1006.83 1005.89 1005.15 1004.35 1003.52 1002.15 1000.50 998.86 998.85 998.19 997.53 996.59 995.76 995.09 994.27 993.32
1021.41 1021.17 1020.75 1020.27 1019.90 1019.57 1019.16 1018.70 1018.25 1017.69 1016.98 1016.39 1015.87 1015.08 1014.10 1013.30 1012.31 1011.49 1010.52 1009.48 1008.50 1007.44 1006.22 1004.95 1003.91 1003.14 1002.33 1001.42 1000.23 998.50 996.97 996.78 996.44 995.72 994.60 993.85 992.83 992.08
1021.20 1020.90 1020.37 1019.93 1019.62 1019.27 1018.82 1018.34 1017.74 1017.04 1016.41 1015.93 1015.19 1014.31 1013.33 1012.52 1011.59 1010.65 1009.73 1008.65 1007.57 1006.68 1005.42 1004.29 1003.26 1002.49 1001.66 1000.88 999.70 998.32 996.85 995.44 994.89 994.16 993.54 993.26 992.50 991.31
1020.85 1020.55 1020.11 1019.64 1019.24 1018.82 1018.35 1017.84 1017.23 1016.39 1015.76 1015.23 1014.50 1013.55 1012.59 1011.65 1010.74 1009.82 1008.83 1007.84 1006.90 1005.88 1004.87 1003.72 1002.84 1002.03 1001.09 1000.28 999.26 997.99 996.63 995.33 994.09 992.92 992.15 991.46 990.77 990.14
Thickness
5544 5541 5534 5528 5520 5513 5511 5507 5498 5488 5483 5484 5478 5476 5471 5467 5464 5462 5459 5455 5453 5451 5450 5449 5448 5447 5446 5446 5446 5445 5445 5442 5440 5438 5438 5436 5434 5433
5534 5529 5521 5520 5510 5501 5499 5494 5487 5478 5470 5470 5465 5462 5459 5455 5451 5448 5445 5441 5438 5436 5434 5433 5432 5431 5430 5429 5428 5426 5423 5421 5418 5414 5411 5408 5406 5405
5519 5513 5509 5506 5498 5490 5486 5479 5473 5464 5458 5458 5452 5449 5446 5442 5437 5434 5430 5427 5423 5419 5418 5417 5415 5413 5411 5408 5405 5401 5397 5392 5388 5384 5381 5378 5376 5373
5507 5500 5499 5490 5484 5477 5472 5466 5460 5453 5446 5444 5438 5434 5430 5427 5423 5419 5416 5411 5407 5403 5400 5398 5396 5392 5388 5384 5379 5373 5367 5361 5358 5355 5354 5353 5354 5356
5491 5490 5479 5478 5470 5466 5461 5453 5447 5442 5434 5428 5426 5421 5416 5411 5409 5404 5401 5398 5391 5384 5380 5377 5372 5365 5359 5354 5349 5344 5340 5339 5340 5340 5340 5341 5343 5344
5479 5473 5470 5467 5462 5458 5450 5441 5436 5428 5421 5415 5412 5405 5400 5397 5392 5389 5389 5379 5375 5363 5358 5354 5346 5337 5330 5326 5325 5324 5323 5323 5324 5326 5327 5328 5330 5332
5466 5464 5460 5456 5454 5448 5442 5431 5423 5417 5409 5401 5396 5390 5386 5382 5375 5372 5367 5363 5353 5339 5337 5329 5322 5315 5312 5308 5306 5305 5306 5308 5310 5312 5315 5317 5319 5322
5454 5452 5449 5445 5438 5432 5428 5422 5414 5406 5392 5383 5378 5377 5373 5362 5357 5350 5345 5335 5335 5318 5311 5315 5303 5306 5299 5294 5290 5289 5289 5290 5292 5296 5299 5302 5307 5311
5443 5438 5433 5430 5423 5415 5411 5405 5398 5391 5384 5378 5371 5361 5355 5345 5340 5331 5320 5312 5309 5302 5293 5309 5291 5293 5285 5280 5274 5273 5275 5275 5278 5283 5288 5291 5295 5299
5431 5425 5417 5412 5408 5403 5397 5391 5384 5374 5368 5361 5354 5347 5338 5328 5317 5310 5304 5302 5300 5289 5270 5283 5277 5277 5275 5269 5263 5262 5264 5267 5271 5275 5279 5281 5284 5288
5417 5411 5406 5400 5395 5392 5388 5378 5369 5360 5353 5346 5339 5330 5320 5309 5301 5299 5290 5284 5285 5276 5258 5248 5258 5259 5260 5263 5258 5254 5255 5259 5264 5267 5269 5272 5276 5281
5404 5397 5391 5388 5384 5379 5370 5360 5352 5344 5337 5326 5316 5307 5300 5295 5289 5281 5273 5264 5256 5259 5245 5234 5240 5228 5249 5256 5254 5248 5249 5252 5257 5261 5265 5269 5273 5277
5394 5387 5381 5375 5369 5362 5354 5343 5336 5332 5319 5308 5300 5296 5293 5288 5281 5270 5258 5246 5241 5232 5226 5215 5225 5221 5222 5238 5248 5246 5246 5251 5254 5258 5260 5263 5268 5272
5385 5377 5369 5361 5353 5343 5334 5325 5320 5312 5301 5296 5294 5291 5287 5280 5271 5262 5253 5243 5231 5223 5224 5212 5215 5216 5222 5230 5238 5249 5250 5252 5255 5260 5260 5262 5265 5270
5372 5362 5351 5341 5329 5318 5311 5304 5297 5290 5291 5290 5287 5283 5277 5270 5264 5259 5252 5243 5235 5226 5222 5220 5219 5223 5223 5229 5239 5246 5253 5261 5255 5259 5260 5262 5263 5265
5353 5337 5325 5312 5301 5291 5286 5285 5284 5286 5287 5285 5280 5276 5270 5265 5261 5256 5251 5245 5239 5239 5234 5232 5231 5229 5232 5234 5238 5248 5253 5254 5261 5260 5263 5266 5268 5269
5332 5314 5296 5283 5275 5273 5276 5280 5283 5284 5282 5278 5274 5270 5266 5263 5259 5255 5249 5247 5242 5245 5246 5244 5239 5238 5238 5236 5242 5252 5258 5260 5265 5267 5267 5273 5278 5281
5307 5289 5275 5266 5265 5269 5275 5280 5282 5281 5279 5274 5269 5264 5261 5259 5257 5257 5254 5249 5248 5249 5249 5252 5251 5252 5254 5257 5254 5258 5265 5266 5273 5276 5278 5284 5293 5293
5290 5277 5271 5270 5271 5274 5276 5278 5279 5279 5276 5271 5265 5261 5259 5258 5259 5257 5257 5256 5256 5255 5256 5257 5257 5258 5264 5268 5274 5269 5272 5279 5282 5284 5287 5290 5296 5301
5284 5279 5277 5278 5278 5278 5278 5278 5278 5277 5274 5269 5265 5262 5261 5259 5259 5259 5259 5258 5260 5264 5267 5267 5265 5264 5264 5270 5279 5286 5280 5282 5285 5291 5294 5297 5302 5308
5287 5283 5282 5282 5281 5280 5279 5278 5277 5275 5275 5272 5267 5263 5263 5262 5262 5261 5262 5264 5266 5266 5268 5272 5272 5271 5270 5272 5276 5286 5292 5289 5290 5294 5300 5302 5308 5310
5288 5285 5285 5284 5282 5280 5279 5278 5278 5277 5276 5272 5269 5267 5266 5265 5265 5264 5265 5267 5268 5268 5273 5275 5275 5274 5273 5274 5278 5284 5291 5298 5299 5302 5304 5303 5305 5310
5289 5286 5284 5283 5282 5280 5279 5278 5278 5280 5278 5274 5272 5272 5271 5270 5269 5269 5271 5271 5272 5274 5275 5277 5275 5275 5276 5276 5281 5286 5292 5299 5304 5307 5307 5307 5306 5304